Location: Be?i?
(36.9044°N, 30.1006°E)
Time: 11:25:41
(UTC+00:00)

Cosmos 1092 Rocket - Pass Details

Date: 05 August 2024
Orbit: 954 x 994 km, 83.0° (Epoch: 09 September)

Event Time Altitude Azimuth Distance (km) Brightness Sun altitude
Rises 23:22:38 0° 351° (N) 3,642 7.8 -33.5°
Reaches altitude 10° 23:25:08 10° 349° (N) 2,696 6.9 -33.3°
Enters shadow 23:29:49 53° 331° (NNW) 1,170 4.5 -32.9°
